Date String (YYYY-MM-DD hh:mm:ss) UTC,Instrument flags,absolute air pressure of the measurement (hPa),sample flow rate (lpm),inlet stack bypass flow (lpm),air temperature of the measurement (°C),ambient temperature measured by the external sensor (°C),aerosol sample conditioner tube jacket temperature (°C),OPC LED temperature (°C),internal box temperature (°C),relative humidity of the measurement (%),span deviation,mass concentration of particles derived from Lorenz-Mie calculation of OPC scattering (μg/m³),mass concentration of particles derived from Lorenz-Mie calculation of OPC scattering (μg/m³),mass concentration of particles derived from Lorenz-Mie calculation of OPC scattering (μg/m³)
DateTimeUTC,F1_M11,P_M11,Q1_M11,Q2_M11,T1_M11,T2_M11,T3_M11,T4_M11,T5_M11,U1_M11,ZSPAN_M11,X0_M11,X2_M11,X1_M11
2023-11-06 05:00:00,SystemResetWarning,0825.9,5.00,000.00,027.7,024.3,000.0,036.4,028.7,8.5,0000.0,0006.38,0003.12,0002.59
2023-11-06 05:01:00,SystemResetWarning,0825.9,5.00,000.00,027.7,024.8,000.0,036.4,028.7,8.7,0000.0,0006.32,0003.13,0002.59
2023-11-06 05:02:00,SystemResetWarning,0825.9,5.00,000.00,027.7,025.2,000.0,036.3,028.8,8.7,0000.0,0006.07,0003.10,0002.59
2023-11-06 05:03:00,SystemResetWarning,0825.9,5.00,000.00,027.6,025.5,000.0,036.3,028.9,8.7,0000.0,0005.45,0003.08,0002.60
2023-11-06 05:04:00,SystemResetWarning,0825.8,4.99,000.00,027.6,025.7,000.0,036.2,028.9,8.7,0000.0,0004.83,0003.04,0002.60
2023-11-06 05:05:00,SystemResetWarning,0825.7,4.99,000.00,027.6,025.9,000.0,036.2,029.0,8.8,0000.0,0004.92,0003.08,0002.63
2023-11-06 05:06:00,SystemResetWarning,0825.8,5.00,000.00,027.6,026.1,000.0,036.2,029.0,8.7,0000.0,0004.99,0003.10,0002.64
2023-11-06 05:07:00,SystemResetWarning,0825.9,5.00,000.00,027.7,026.2,000.0,036.2,029.1,8.7,0000.0,0005.01,0003.10,0002.65
2023-11-06 05:08:00,SystemResetWarning,0826.0,5.00,000.00,027.7,026.4,000.0,036.1,029.1,8.7,0000.0,0004.89,0003.06,0002.67
2023-11-06 05:09:00,SystemResetWarning,0826.1,5.00,000.00,027.7,026.5,000.0,036.1,029.2,8.8,0000.0,0004.72,0003.03,0002.67
2023-11-06 05:10:00,SystemResetWarning,0826.2,5.00,000.00,027.7,026.6,000.0,036.1,029.2,8.8,0000.0,0003.97,0003.02,0002.67
2023-11-06 05:11:00,SystemResetWarning,0826.2,5.01,000.00,027.7,026.6,000.0,036.1,029.2,8.9,0000.0,0003.98,0003.03,0002.70
2023-11-06 05:12:00,SystemResetWarning,0826.2,5.01,000.00,027.7,026.7,000.0,036.1,029.2,8.7,0000.0,0003.93,0003.04,0002.71
2023-11-06 05:13:00,SystemResetWarning,0826.1,5.00,000.00,027.8,026.8,000.0,036.1,029.3,8.6,0000.0,0003.99,0003.08,0002.74
2023-11-06 05:14:00,SystemResetWarning,0825.9,4.99,000.00,027.8,026.8,000.0,036.2,029.3,8.5,0000.0,0004.20,0003.12,0002.77
2023-11-06 05:15:00,SystemResetWarning,0825.8,4.99,000.00,027.8,026.9,000.0,036.2,029.3,8.5,0000.0,0004.30,0003.15,0002.80
2023-11-06 05:16:00,SystemResetWarning,0825.7,4.99,000.00,027.8,026.9,000.0,036.2,029.3,8.6,0000.0,0004.24,0003.15,0002.80
2023-11-06 05:17:00,SystemResetWarning,0825.6,5.00,000.00,027.9,027.0,000.0,036.2,029.4,8.8,0000.0,0004.26,0003.17,0002.82
2023-11-06 05:18:00,SystemResetWarning,0825.7,5.00,000.00,027.9,027.0,000.0,036.2,029.4,8.9,0000.0,0004.18,0003.16,0002.84
2023-11-06 05:19:00,SystemResetWarning,0825.9,5.01,000.00,027.9,027.0,000.0,036.2,029.4,8.9,0000.0,0004.34,0003.20,0002.87
2023-11-06 05:20:00,SystemResetWarning,0826.0,5.00,000.00,027.9,027.0,000.0,036.2,029.4,8.8,0000.0,0004.38,0003.21,0002.89
2023-11-06 05:21:00,SystemResetWarning,0826.0,5.00,000.00,027.9,027.0,000.0,036.2,029.4,8.8,0000.0,0004.36,0003.22,0002.90
2023-11-06 05:22:00,SystemResetWarning,0826.0,5.01,000.00,028.0,027.1,000.0,036.2,029.5,8.9,0000.0,0004.38,0003.24,0002.93
2023-11-06 05:23:00,SystemResetWarning,0825.9,5.00,000.00,028.0,027.1,000.0,036.2,029.5,8.7,0000.0,0004.46,0003.26,0002.96
2023-11-06 05:24:00,SystemResetWarning,0825.9,5.00,000.00,028.0,027.1,000.0,036.3,029.5,8.6,0000.0,0004.50,0003.28,0002.99
2023-11-06 05:25:00,SystemResetWarning,0825.9,4.99,000.00,028.0,027.1,000.0,036.3,029.5,8.1,0000.0,0004.48,0003.29,0003.02
2023-11-06 05:26:00,SystemResetWarning,0826.0,5.00,000.00,028.0,027.2,000.0,036.3,029.5,8.4,0000.0,0005.28,0003.27,0003.01
2023-11-06 05:27:00,SystemResetWarning,0826.0,5.00,000.00,028.0,027.2,000.0,036.3,029.5,8.4,0000.0,0005.69,0003.26,0003.00
2023-11-06 05:28:00,SystemResetWarning,0826.1,5.01,000.00,028.1,027.2,000.0,036.3,029.5,8.7,0000.0,0005.88,0003.24,0002.98
2023-11-06 05:29:00,SystemResetWarning,0826.0,5.00,000.00,028.1,027.2,000.0,036.3,029.5,8.6,0000.0,0005.88,0003.24,0002.98
2023-11-06 05:30:00,SystemResetWarning,0826.0,5.00,000.00,028.1,027.2,000.0,036.3,029.6,8.6,0000.0,0005.86,0003.23,0002.96
2023-11-06 05:31:00,SystemResetWarning,0826.2,5.00,000.00,028.1,027.2,000.0,036.4,029.6,8.6,0000.0,0005.93,0003.24,0002.95
2023-11-06 05:32:00,SystemResetWarning,0826.3,5.01,000.00,028.1,027.3,000.0,036.4,029.6,8.8,0000.0,0006.11,0003.23,0002.94
2023-11-06 05:33:00,SystemResetWarning,0826.3,5.00,000.00,028.1,027.3,000.0,036.4,029.6,9.1,0000.0,0006.34,0003.23,0002.93
2023-11-06 05:34:00,SystemResetWarning,0826.3,5.00,000.00,028.1,027.3,000.0,036.4,029.6,9.2,0000.0,0006.25,0003.21,0002.92
2023-11-06 05:35:00,SystemResetWarning,0826.2,5.00,000.00,028.2,027.3,000.0,036.4,029.6,9.3,0000.0,0006.25,0003.22,0002.93
2023-11-06 05:36:00,SystemResetWarning,0826.2,4.99,000.00,028.2,027.3,000.0,036.4,029.6,9.4,0000.0,0006.94,0003.23,0002.94
2023-11-06 05:37:00,SystemResetWarning,0826.2,5.00,000.00,028.2,027.3,000.0,036.4,029.6,9.5,0000.0,0007.06,0003.26,0002.97
2023-11-06 05:38:00,SystemResetWarning,0826.2,4.99,000.00,028.2,027.3,000.0,036.5,029.6,9.5,0000.0,0006.61,0003.29,0003.01
2023-11-06 05:39:00,SystemResetWarning,0826.2,5.00,000.00,028.2,027.3,000.0,036.5,029.6,9.5,0000.0,0006.42,0003.31,0003.05
2023-11-06 05:40:00,SystemResetWarning,0826.2,5.00,000.00,028.2,027.3,000.0,036.5,029.7,9.5,0000.0,0006.45,0003.33,0003.08
2023-11-06 05:41:00,SystemResetWarning,0826.2,5.01,000.00,028.2,027.4,000.0,036.5,029.7,9.6,0000.0,0006.58,0003.36,0003.10
2023-11-06 05:42:00,SystemResetWarning,0826.2,5.00,000.00,028.2,027.4,000.0,036.5,029.7,9.6,0000.0,0006.84,0003.40,0003.12
2023-11-06 05:43:00,SystemResetWarning,0826.2,5.00,000.00,028.2,027.4,000.0,036.5,029.7,9.5,0000.0,0007.28,0003.43,0003.14
2023-11-06 05:44:00,SystemResetWarning,0826.3,5.00,000.00,028.2,027.4,000.0,036.5,029.7,9.5,0000.0,0008.01,0003.46,0003.15
2023-11-06 05:45:00,SystemResetWarning,0826.3,5.00,000.00,028.2,027.4,000.0,036.5,029.7,9.6,0000.0,0008.84,0003.50,0003.16
2023-11-06 05:46:00,SystemResetWarning,0826.3,4.99,000.00,028.2,027.4,000.0,036.5,029.7,9.6,0000.0,0008.89,0003.49,0003.14
2023-11-06 05:47:00,SystemResetWarning,0826.3,4.99,000.00,028.3,027.4,000.0,036.6,029.7,9.7,0000.0,0008.59,0003.48,0003.13
2023-11-06 05:48:00,SystemResetWarning,0826.3,5.00,000.00,028.3,027.4,000.0,036.6,029.8,9.7,0000.0,0008.16,0003.47,0003.11
2023-11-06 05:49:00,SystemResetWarning,0826.4,5.01,000.00,028.3,027.4,000.0,036.6,029.8,9.7,0000.0,0008.19,0003.47,0003.10
2023-11-06 05:50:00,SystemResetWarning,0826.4,5.00,000.00,028.3,027.4,000.0,036.6,029.8,9.7,0000.0,0008.32,0003.49,0003.10
2023-11-06 05:51:00,SystemResetWarning,0826.2,5.01,000.00,028.3,027.4,000.0,036.6,029.8,9.9,0000.0,0008.39,0003.51,0003.09
2023-11-06 05:52:00,SystemResetWarning,0826.2,5.00,000.00,028.3,027.5,000.0,036.6,029.8,9.9,0000.0,0008.43,0003.50,0003.06
2023-11-06 05:53:00,SystemResetWarning,0826.1,5.00,000.00,028.3,027.5,000.0,036.6,029.8,10.0,0000.0,0009.40,0003.52,0003.03
2023-11-06 05:54:00,SystemResetWarning,0826.0,4.99,000.00,028.3,027.5,000.0,036.6,029.8,10.0,0000.0,0009.84,0003.56,0003.02
2023-11-06 05:55:00,SystemResetWarning,0826.1,4.99,000.00,028.3,027.5,000.0,036.6,029.8,10.0,0000.0,0009.30,0003.59,0003.02
2023-11-06 05:56:00,SystemResetWarning,0826.2,4.99,000.00,028.3,027.5,000.0,036.7,029.8,10.0,0000.0,0008.99,0003.60,0003.02
2023-11-06 05:57:00,SystemResetWarning,0826.2,4.99,000.00,028.3,027.5,000.0,036.7,029.8,9.9,0000.0,0009.35,0003.65,0003.02
2023-11-06 05:58:00,SystemResetWarning,0826.3,5.00,000.00,028.3,027.4,000.0,036.7,029.8,9.9,0000.0,0009.32,0003.66,0003.03
2023-11-06 05:59:00,SystemResetWarning,0826.3,5.00,000.00,028.4,027.4,000.0,036.7,029.8,9.8,0000.0,0010.00,0003.71,0003.05
